Location: Cointrin
(46.2167°N, 6.1167°E)
Time: 12:01:49
(UTC+00:00)

Cosmos 44 Rocket - Visible Passes

Search period start: 25 September 2023 00:00
Search period end: 05 October 2023 00:00
Orbit: 635 x 751 km, 65.1° (Epoch: 24 September)

Date Brightness Start Highest point End Pass type
(mag) Time Alt. Az. Time Alt. Az. Time Alt. Az.
26 Sep 6.3 04:21:40 10° SE 04:24:04 14° ESE 04:26:32 10° ENE visible
28 Sep 6.1 04:01:37 10° SSE 04:04:50 17° ESE 04:08:06 10° ENE visible
29 Sep 4.4 04:40:42 10° SSW 04:45:30 49° ESE 04:50:29 10° NE visible
30 Sep 5.7 03:41:50 10° SSE 03:45:36 22° ESE 03:49:27 10° ENE visible
01 Oct 3.9 04:21:26 10° SSW 04:26:22 61° ESE 04:31:28 10° NE visible
02 Oct 5.3 03:22:14 10° S 03:26:23 27° ESE 03:30:39 10° ENE visible
03 Oct 6.1 02:25:15 10° ESE 02:26:41 11° ESE 02:28:06 10° E visible
03 Oct 3.5 04:03:01 15° SSW 04:07:14 76° ESE 04:12:25 10° NE visible
04 Oct 4.8 03:05:12 25° SSE 03:07:11 33° ESE 03:11:46 10° NE visible
04 Oct 3.9 04:43:55 11° WSW 04:48:35 43° NW 04:53:33 10° NNE visible
